Location: Baia Mare
(47.6567°N, 23.5850°E)
Time: 20:13:05
(UTC+03:00)

ISS - Pass Details

Date: 20 September 2019
Orbit: 418 x 421 km, 51.6° (Epoch: 05 May)

Event Time Altitude Azimuth Distance (km) Brightness Sun altitude
Rises 22:17:43 0° 261° (W) 2,388 0.7 -27.4°
Reaches altitude 10° 22:19:51 10° 266° (W) 1,526 -0.3 -27.7°
Enters shadow 22:20:47 17° 270° (W) 1,163 -1.0 -27.9°
